Location: Unspecified
(0.0000°N, 0.0000°E)
Time: 07:44:13
(UTC+01:00)

Palapa 6 Rocket - Visible Passes

Search period start: 10 February 2016 00:00
Search period end: 20 February 2016 00:00
Orbit: 485 x 1223 km, 22.7° (Epoch: 08 February)

Date Brightness Start Highest point End Pass type
(mag) Time Alt. Az. Time Alt. Az. Time Alt. Az.
10 Feb 5.0 06:32:23 10° SW 06:36:39 33° SSE 06:41:46 10° E visible
10 Feb 4.8 21:11:11 10° W 21:16:20 31° SSW 21:17:19 29° S visible
11 Feb 4.6 06:18:47 10° SW 06:22:57 37° SSE 06:27:59 10° E visible
11 Feb 5.2 20:57:24 10° W 21:02:37 29° SSW 21:05:06 20° SSE visible
12 Feb 4.2 06:05:28 12° SW 06:09:17 42° SSE 06:14:12 10° E visible
12 Feb 5.5 20:43:36 10° W 20:48:53 27° SSW 20:52:51 12° SSE visible
13 Feb 3.7 05:53:20 23° SW 05:55:39 49° SSE 06:00:25 10° E visible
13 Feb 5.7 20:29:50 10° WSW 20:35:08 25° SSW 20:39:41 10° SSE visible
14 Feb 3.3 05:41:10 48° SSW 05:42:01 59° SSE 05:46:39 10° ENE visible
14 Feb 5.9 20:16:04 10° WSW 20:21:21 23° SSW 20:25:58 10° SSE visible
15 Feb 3.2 05:29:00 60° E 05:29:00 60° E 05:32:52 10° ENE visible
15 Feb 6.0 20:02:19 10° WSW 20:07:35 22° SSW 20:12:13 10° SSE visible
16 Feb 4.5 05:16:47 30° ENE 05:16:47 30° ENE 05:19:07 10° ENE visible
16 Feb 6.1 19:48:35 10° WSW 19:53:48 21° SSW 19:58:27 10° SSE visible
17 Feb 5.4 05:04:32 15° ENE 05:04:32 15° ENE 05:05:21 10° ENE visible
17 Feb 4.7 06:47:06 10° WNW 06:49:58 18° NNW 06:53:08 10° NNE visible
17 Feb 6.2 19:34:52 10° WSW 19:40:01 20° SSW 19:44:40 10° SSE visible
18 Feb 4.8 06:34:11 10° NW 06:36:25 14° NNW 06:38:51 10° NNE visible
19 Feb 4.9 06:21:47 11° NNW 06:22:53 12° NNW 06:24:20 10° N visible
